Regional Weather Roundup
Issued by NWS

Home | Current Version | Previous Version | Graphics & Text | Print | Product List | Glossary Off
Versions: 1 2 3 4 5 6 7 8 9 10 11 12 13 14 15 16 17 18 19 20 21 22 23 24 25 26 27 28 29 30 31 32 33 34 35 36 37 38 39 40 41 42 43 44 45 46 47 48 49 50

000
ASUS43 KLSX 160757
RWRMO

WEATHER SUMMARY FOR MISSOURI
NATIONAL WEATHER SERVICE SPRINGFIELD MO
200 AM CST MON JAN 16 2017

NOTE: "FAIR" INDICATES FEW OR NO CLOUDS BELOW 12,000 FEET WITH NO
       SIGNIFICANT WEATHER AND/OR OBSTRUCTIONS TO VISIBILITY.
       CURRENT SKY AND/OR WEATHER CONDITIONS ARE NOT AVAILABLE FOR
       CHILLICOTHE AND FARMINGTON.

MOZ001>031-035>038-043-044-053-054-160900-
...NORTHERN AND WESTERN MISSOURI...

CITY           SKY/WX    TMP DP  RH WIND       PRES   REMARKS
KANSAS CTY INT DRZL/FOG  33  31  92 E12       30.05F VSB 1/2 WCI  24
LEE`S SUMMIT   FOG       33  32  96 E12       30.05F VSB 3/4 WCI  24
ST JOSEPH      CLOUDY    32  32 100 E6        30.07F FOG     WCI  26
CHILLICOTHE      N/A     32  32 100 E5        30.13F WCI  27

$$
MOZ066>068-077>081-088>096-101>105-160900-
...SOUTHWEST MISSOURI...

CITY           SKY/WX    TMP DP  RH WIND       PRES   REMARKS
SPRINGFIELD    CLOUDY    45  43  93 SE20G28   30.02F
JOPLIN         CLOUDY    48  48 100 MISG      29.96F

$$
MOZ032>034-039>042-045>050-055>058-069>072-160900-
...CENTRAL MISSOURI...

CITY           SKY/WX    TMP DP  RH WIND       PRES   REMARKS
COLUMBIA       NOT AVBL
JEFFERSON CITY CLOUDY    36  35  96 E7        30.13F
ROLLA          CLOUDY    34  34 100 SE9       30.10F FOG     WCI  27
SEDALIA        MIX PCPN  36  36 100 E8        30.08F VSB 3/4 WCI  30
WARRENSBURG    DRZL/FOG  34  34 100 NE6       30.08F VSB 3/4 WCI  29
OSAGE BEACH    CLOUDY    37  37 100 E6        30.10F

$$
MOZ051-052-059>065-160900-
...EAST CENTRAL MISSOURI...

CITY           SKY/WX    TMP DP  RH WIND       PRES   REMARKS
ST LOUIS INTL  FOG       38  37  97 E5        30.19R VSB 1/4

$$
MOZ072>076-082>087-097>100-106>115-160900-
...SOUTH CENTRAL AND SOUTHEAST MISSOURI...

CITY           SKY/WX    TMP DP  RH WIND       PRES   REMARKS
CAPE GIRARDEAU CLOUDY    41  40  96 E3        30.19S FOG
POPLAR BLUFF   FOG       42  42 100 NE6       30.16F VSB 1/2
WEST PLAINS    FOG       41  41 100 E7        30.13R VSB 1/4

$$



USA.gov is the U.S. government's official web portal to all federal, state and local government web resources and services.